This is the latest recevied weather packets stored in our database for station/object SQ7IQO. If no packets are shown the sender has not sent any weather packets the latest 10 day(s).
| Time | Temp. | Humidity | Pressure | Rain* | Wind** | Luminosity | Snow |
|---|---|---|---|---|---|---|---|
| 1787581375 | 20.56° C | 68% | 1022.7 hPa | 0 mm | 0.45 m/s, ° | - | - |
| 1787581315 | 20° C | 68% | 1022.6 hPa | 0 mm | 0 m/s | - | - |
| 1787581255 | 20° C | 70% | 1022.6 hPa | 0 mm | 0 m/s | - | - |
| 1787581195 | 18.89° C | 69% | 1022.6 hPa | 0 mm | 0 m/s | - | - |
| 1787581135 | 19.44° C | 69% | 1022.6 hPa | 0 mm | 1.34 m/s, ° | - | - |
| 1787581075 | 19.44° C | 69% | 1022.6 hPa | 0 mm | 0.89 m/s, ° | - | - |
| 1787581015 | 19.44° C | 70% | 1022.6 hPa | 0 mm | 0.89 m/s, ° | - | - |
| 1787580955 | 19.44° C | 69% | 1022.7 hPa | 0 mm | 0.89 m/s, ° | - | - |
| 1787580895 | 18.89° C | 69% | 1022.6 hPa | 0 mm | 0.89 m/s, ° | - | - |
| 1787580835 | 18.89° C | 69% | 1022.6 hPa | 0 mm | 0.89 m/s, ° | - | - |
| 1787580775 | 18.89° C | 71% | 1022.6 hPa | 0 mm | 1.34 m/s, ° | - | - |
| 1787580715 | 18.89° C | 71% | 1022.6 hPa | 0 mm | 0.89 m/s, ° | - | - |
| 1787580655 | 18.89° C | 71% | 1022.6 hPa | 0 mm | 0.89 m/s, ° | - | - |
| 1787580595 | 18.33° C | 73% | 1022.6 hPa | 0 mm | 0.45 m/s, ° | - | - |
| 1787580535 | 18.33° C | 73% | 1022.6 hPa | 0 mm | 0.89 m/s, ° | - | - |
| 1787580475 | 17.78° C | 74% | 1022.6 hPa | 0 mm | 1.34 m/s, ° | - | - |
| 1787580415 | 17.78° C | 76% | 1022.7 hPa | 0 mm | 0.89 m/s, ° | - | - |
| 1787580355 | 17.22° C | 78% | 1022.7 hPa | 0 mm | 0 m/s | - | - |
| 1787580295 | 17.22° C | 78% | 1022.7 hPa | 0 mm | 0 m/s | - | - |
| 1787580235 | 17.22° C | 78% | 1022.6 hPa | 0 mm | 0.89 m/s, ° | - | - |
| 1787580175 | 17.22° C | 77% | 1022.7 hPa | 0 mm | 0.45 m/s, ° | - | - |
| 1787580115 | 17.22° C | 78% | 1022.7 hPa | 0 mm | 0.45 m/s, ° | - | - |
| 1787580055 | 17.22° C | 79% | 1022.7 hPa | 0 mm | 0 m/s | - | - |
| 1787579995 | 17.22° C | 79% | 1022.7 hPa | 0 mm | 0 m/s | - | - |
| 1787579935 | 17.22° C | 77% | 1022.7 hPa | 0 mm | 0.89 m/s, ° | - | - |
* Rain latest hour (hover to see other rain measurements)
** Current wind speed in m/s (hover to see current wind gust speed)